Location: *
(43.9900°N, 3.4811°E)
Time: 04:06:59
(UTC+00:00)

Cosmos 158 Rocket - Pass Details

Date: 25 August 2019
Orbit: 698 x 794 km, 74.0° (Epoch: 17 September)

Event Time Altitude Azimuth Distance (km) Brightness Sun altitude
Rises 19:50:50 0° 342° (NNW) 3,260 8.1 -13.4°
Reaches altitude 10° 19:53:15 10° 346° (NNW) 2,341 7.2 -13.8°
Maximum altitude 19:58:32 62° 67° (ENE) 888 4.1 -14.6°
Enters shadow 20:02:04 21° 142° (SE) 1,700 5.2 -15.2°
